Weather History for Resia Pass, Italy

Change the Weather History Date:

Friday, January 3, 2014

  Actual Average Record
Temperature  
Mean Temperature 26 °F -  
Max Temperature 33 °F 32 °F 42 °F (2003)
Min Temperature 19 °F 18 °F 8 °F (2011)
Degree Days  
Heating Degree Days 39    
Moisture  
Dew Point 20 °F    
Average Humidity 81    
Maximum Humidity 93    
Minimum Humidity 64    
Precipitation  
Precipitation 0.00 in - - ()
Sea Level Pressure  
Sea Level Pressure 30.00 in    
Wind  
Wind Speed 3 mph ()    
Max Wind Speed 8 mph    
Max Gust Speed -    
Visibility 6.2 miles    
Events      
Averages and records for this station are not official NWS values.
T = Trace of Precipitation, MM = Missing Value Source: Averaged Metar Reports

Daily Weather History Graph

Daily Weather History Graph

Search for Another Location

Airport:

Trip Planner

Search our weather history database for the weather conditions in past years. The results will help you decide how hot, cold, wet, or windy it might be!

Date:

Astronomy

Jan. 03, 2014 Rise Set
Actual Time 8:03 AM CET 4:42 PM CET
Civil Twilight 7:28 AM CET 5:17 PM CET
Nautical Twilight 6:49 AM CET 5:55 PM CET
Astronomical Twilight 6:12 AM CET 6:32 PM CET
Moon 9:07 AM CET (1/3) 7:42 PM CET (1/3)
Length of Visible Light 9h 48m
Length of Day
8h 38m
Waxing Crescent, 6% of the Moon is Illuminated
Jan 3
Waxing Crescent
Jan 8
First Quarter
Jan 16
Full
Jan 24
Last Quarter
Jan 30
New

Hourly Weather History & Observations

Time (CET) Temp. Windchill Dew Point Humidity Pressure Visibility Wind Dir Wind Speed Gust Speed Precip Events Conditions
12:55 AM 19.4 °F 11.5 °F 17.6 °F 93% 29.92 in 6.2 mi NNE 5.8 mph - N/A   Mostly Cloudy
1:55 AM 19.4 °F - 17.6 °F 93% 29.92 in 6.2 mi Calm Calm - N/A   Partly Cloudy
2:55 AM 19.4 °F 12.8 °F 17.6 °F 93% 29.92 in 6.2 mi NNE 4.6 mph - N/A   Partly Cloudy
3:55 AM 19.4 °F - 17.6 °F 93% 29.95 in - NNE 2.3 mph - N/A   Clear
5:55 AM 19.4 °F - 15.8 °F 86% 29.95 in - Calm Calm - N/A   Clear
6:55 AM 19.4 °F - 15.8 °F 86% 29.98 in - NNE 2.3 mph - N/A   Clear
7:55 AM 21.2 °F 16.4 °F 17.6 °F 86% 29.98 in 6.2 mi NNE 3.5 mph - N/A   Mostly Cloudy
8:55 AM 21.2 °F 14.9 °F 15.8 °F 80% 29.98 in - NNE 4.6 mph - N/A   Clear
9:55 AM 21.2 °F - 15.8 °F 80% 29.98 in - Calm Calm - N/A   Clear
10:55 AM 24.8 °F - 17.6 °F 74% 29.98 in - Calm Calm - N/A   Clear
11:55 AM 32.0 °F 26.4 °F 23.0 °F 69% 30.01 in - South 5.8 mph - N/A   Clear
12:55 PM 32.0 °F 24.8 °F 21.2 °F 64% 30.01 in 6.2 mi SE 8.1 mph - N/A   Mostly Cloudy
1:55 PM 32.0 °F 24.8 °F 23.0 °F 69% 30.01 in 6.2 mi SE 8.1 mph - N/A   Mostly Cloudy
2:55 PM 33.8 °F 30.8 °F 23.0 °F 65% 30.01 in 6.2 mi WSW 3.5 mph - N/A   Mostly Cloudy
3:55 PM 32.0 °F - 23.0 °F 69% 30.01 in - Calm Calm - N/A   Clear
4:55 PM 30.2 °F - 23.0 °F 75% 30.01 in 6.2 mi Variable 1.2 mph - N/A   Mostly Cloudy
5:55 PM 28.4 °F - 23.0 °F 80% 30.01 in - North 2.3 mph - N/A   Clear
6:55 PM 26.6 °F 22.6 °F 21.2 °F 80% 30.04 in - North 3.5 mph - N/A   Clear
7:55 PM 24.8 °F 17.9 °F 21.2 °F 86% 30.04 in - North 5.8 mph - N/A   Clear
8:55 PM 24.8 °F - 21.2 °F 86% 30.06 in - Calm Calm - N/A   Clear
9:55 PM 23.0 °F 15.8 °F 19.4 °F 86% 30.06 in - NNE 5.8 mph - N/A   Clear
10:55 PM 24.8 °F 19.1 °F 21.2 °F 86% 30.06 in - North 4.6 mph - N/A   Clear
11:55 PM 26.6 °F - 21.2 °F 80% 30.06 in - ENE 2.3 mph - N/A   Clear